NEXUS (FO-99) (43937 NORAD) Tracking and Keplerian Element Data

This shows tracking and keplerian element data for the satellite.

Feedback or suggestion? Click here.




ElementValue
Catalog43937
NameNEXUS (FO-99)
Epoch Orbit20542
Epoch Day269.36262622
Epoch Year2022
RAAN298.8907
Inclination97.1228
Eccentricity0.0020751
Argument of Perigee147.9339
Mean Anonmoly212.3171
Mean Motion15.32858582
Decay Rate0.00013024
L11 43937U 19003F 22269.36262622 .00013024 00000+0 40976-3 0 9997
L22 43937 97.1228 298.8907 0020751 147.9339 212.3171 15.32858582205428

Live tracking and technical data element details for NEXUS (FO-99) (NORAD 43937). NEXUS (FO-99) can be tracked NOW for your location showing map with azimuth and elevation plus other details from your city location.

Track the satellite on the map from your city or location and see movement details for azimuth, elevation, latitude, longitude, range, height, and movement on the map or in text.







IsCatalogInMostPopularTable: catalog: 43937, numindb: 609
Update: records affected: 1



GetName: 43937 NEXUS (FO-99)

Hit Count: updated at: Fri, 30 Sep 2022 02:27:35 GMT